Погода в Хафизабаде

Пакистан     32°04′20″N   73°41′08″E
темп.,
°C
ветер,
м/с
пор.,
м/с
влажн.,
%
обл.,
%
осадки,
мм/ч
давл.,
гПа
погр.,
м
12 апреля, пн
пн1223:00+26ссв31024100 0.0 1011183
02:00+27ссв4825100 0.0 1011120
05:00+25св51030100 0.0 1010164
08:00+28всв6122398 0.0 1012476
11:00+36всв231214 0.0 10122814
14:00+38з2492 0.0 10094403
17:00+37сз4593 0.0 10074664
20:00+29с412200 0.0 1009213
13 апреля, вт
вт1323:00+25св34275 0.0 101054
02:00+22ссв233418 0.0 101022
05:00+22ссв3336100 0.0 101037
08:00+29всв332187 0.0 1010280
11:00+37сз121223 0.0 10101736
14:00+39сз461040 0.0 10073782
17:00+38зсз4610100 0.0 10054012
20:00+29ссв492130 0.0 1007134
14 апреля, ср
ср1423:00+27с51226100 0.0 1008178
02:00+26с4112898 0.0 1007264
05:00+24ссв233187 0.0 100726
08:00+30с341999 0.0 1009304
11:00+38с221199 0.0 10091778
14:00+40сз4710100 0.0 10054214
17:00+39сз46932 0.0 10034767
20:00+30ссв341999 0.0 100547
15 апреля, чт
чт1523:00+26св472493 0.0 1007106
02:00+24зсз223383 0.0 100831
05:00+25с333286 0.1 100739
08:00+32св352088 0.0 1008325
11:00+39в131098 0.0 10073261
14:00+39юз569100 0.0 10044778
17:00+38ссз4611100 0.0 10022335
20:00+28ссв492491 0.0 1005154
16 апреля, пт
пт1623:00+23ссв113828 0.0 100611
02:00+23с353994 0.0 100581
05:00+22св41044100 0.0 1004179
08:00+27ссз4734100 0.1 1006281
11:00+33с5520100 0.1 10061250
14:00+35сз6417100 0.0 10042267
17:00+31ссз6825100 0.0 1004842
20:00+24ссз51048100 0.0 1006347